owner,sensor,date,latitude,longitude,vertical_datum,sea_water_practical_salinity,qcFlag 
SCCF RECON,ioos:station:SCCF:13:1,2017-11-01T04:00:00Z,26.5255,-82.0032,2.57,20.69,1111122 
SCCF RECON,ioos:station:SCCF:13:1,2017-11-01T05:00:00Z,26.5255,-82.0032,2.541,23.48,1111122 
SCCF RECON,ioos:station:SCCF:13:1,2017-11-01T06:00:00Z,26.5255,-82.0032,2.43,23.34,1111122 
SCCF RECON,ioos:station:SCCF:13:1,2017-11-01T07:00:00Z,26.5255,-82.0032,2.3,14.18,1111122 
SCCF RECON,ioos:station:SCCF:13:1,2017-11-01T08:00:00Z,26.5255,-82.0032,2.213,3.84,1111122 
SCCF RECON,ioos:station:SCCF:13:1,2017-11-01T09:00:00Z,26.5255,-82.0032,2.156,2.88,1111122 
SCCF RECON,ioos:station:SCCF:13:1,2017-11-01T10:00:00Z,26.5255,-82.0032,2.12,1.91,1111122 
SCCF RECON,ioos:station:SCCF:13:1,2017-11-01T11:00:00Z,26.5255,-82.0032,2.16,1.34,1111122 
SCCF RECON,ioos:station:SCCF:13:1,2017-11-01T12:00:00Z,26.5255,-82.0032,2.29,1.0,1111122 
SCCF RECON,ioos:station:SCCF:13:1,2017-11-01T13:00:00Z,26.5255,-82.0032,2.43,1.89,1111122 
SCCF RECON,ioos:station:SCCF:13:1,2017-11-01T14:00:00Z,26.5255,-82.0032,2.51,12.0,1111122 
SCCF RECON,ioos:station:SCCF:13:1,2017-11-01T15:00:00Z,26.5255,-82.0032,2.581,15.74,1111122 
SCCF RECON,ioos:station:SCCF:13:1,2017-11-01T16:00:00Z,26.5255,-82.0032,2.633,21.7,1111122 
SCCF RECON,ioos:station:SCCF:13:1,2017-11-01T17:00:00Z,26.5255,-82.0032,2.629,22.7,1111122 
SCCF RECON,ioos:station:SCCF:13:1,2017-11-01T18:00:00Z,26.5255,-82.0032,2.548,23.47,1111122 
SCCF RECON,ioos:station:SCCF:13:1,2017-11-01T19:00:00Z,26.5255,-82.0032,2.43,23.19,1111122 
SCCF RECON,ioos:station:SCCF:13:1,2017-11-01T20:00:00Z,26.5255,-82.0032,2.331,13.88,1111122 
SCCF RECON,ioos:station:SCCF:13:1,2017-11-01T21:00:00Z,26.5255,-82.0032,2.29,4.58,1111122 
SCCF RECON,ioos:station:SCCF:13:1,2017-11-01T22:00:00Z,26.5255,-82.0032,2.26,3.26,1111122 
SCCF RECON,ioos:station:SCCF:13:1,2017-11-02T04:00:00Z,26.5255,-82.0032,2.77,22.27,1111122 
SCCF RECON,ioos:station:SCCF:13:1,2017-11-02T05:00:00Z,26.5255,-82.0032,2.77,25.4,1111122 
SCCF RECON,ioos:station:SCCF:13:1,2017-11-02T06:00:00Z,26.5255,-82.0032,2.67,25.97,1111122 
SCCF RECON,ioos:station:SCCF:13:1,2017-11-02T07:00:00Z,26.5255,-82.0032,2.53,25.34,1111122 
SCCF RECON,ioos:station:SCCF:13:1,2017-11-02T08:00:00Z,26.5255,-82.0032,2.41,12.13,1111122 
SCCF RECON,ioos:station:SCCF:13:1,2017-11-02T09:00:00Z,26.5255,-82.0032,2.33,6.29,1111122 
SCCF RECON,ioos:station:SCCF:13:1,2017-11-02T10:00:00Z,26.5255,-82.0032,2.25,4.78,1111122 
SCCF RECON,ioos:station:SCCF:13:1,2017-11-02T11:00:00Z,26.5255,-82.0032,2.201,3.69,1111122 
SCCF RECON,ioos:station:SCCF:13:1,2017-11-02T12:00:00Z,26.5255,-82.0032,2.26,2.86,1111122 
SCCF RECON,ioos:station:SCCF:13:1,2017-11-02T13:00:00Z,26.5255,-82.0032,2.448,2.14,1111122 
SCCF RECON,ioos:station:SCCF:13:1,2017-11-02T14:00:00Z,26.5255,-82.0032,2.57,5.62,1111122 
SCCF RECON,ioos:station:SCCF:13:1,2017-11-02T15:00:00Z,26.5255,-82.0032,2.643,12.66,1111122 
SCCF RECON,ioos:station:SCCF:13:1,2017-11-02T16:00:00Z,26.5255,-82.0032,2.72,17.7,1111122 
SCCF RECON,ioos:station:SCCF:13:1,2017-11-02T17:00:00Z,26.5255,-82.0032,2.739,22.61,1111122 
SCCF RECON,ioos:station:SCCF:13:1,2017-11-02T18:00:00Z,26.5255,-82.0032,2.69,23.71,1111122 
SCCF RECON,ioos:station:SCCF:13:1,2017-11-02T19:00:00Z,26.5255,-82.0032,2.56,20.36,1111122 
SCCF RECON,ioos:station:SCCF:13:1,2017-11-02T20:00:00Z,26.5255,-82.0032,2.425,16.41,1111122 
SCCF RECON,ioos:station:SCCF:13:1,2017-11-02T21:00:00Z,26.5255,-82.0032,2.349,5.31,1111122 
SCCF RECON,ioos:station:SCCF:13:1,2017-11-02T22:00:00Z,26.5255,-82.0032,2.3,4.14,1111122 
SCCF RECON,ioos:station:SCCF:13:1,2017-11-03T04:00:00Z,26.5255,-82.0032,2.65,15.76,1111122 
SCCF RECON,ioos:station:SCCF:13:1,2017-11-03T05:00:00Z,26.5255,-82.0032,2.67,18.85,1111122 
SCCF RECON,ioos:station:SCCF:13:1,2017-11-03T06:00:00Z,26.5255,-82.0032,2.625,21.98,1111122 
SCCF RECON,ioos:station:SCCF:13:1,2017-11-03T07:00:00Z,26.5255,-82.0032,2.491,20.68,1111122 
SCCF RECON,ioos:station:SCCF:13:1,2017-11-03T08:00:00Z,26.5255,-82.0032,2.351,8.3,1111122 
SCCF RECON,ioos:station:SCCF:13:1,2017-11-03T09:00:00Z,26.5255,-82.0032,2.251,4.83,1111122 
SCCF RECON,ioos:station:SCCF:13:1,2017-11-03T10:00:00Z,26.5255,-82.0032,2.163,3.48,1111122 
SCCF RECON,ioos:station:SCCF:13:1,2017-11-03T11:00:00Z,26.5255,-82.0032,2.088,1.99,1111122 
SCCF RECON,ioos:station:SCCF:13:1,2017-11-03T12:00:00Z,26.5255,-82.0032,2.05,1.5,1111122 
SCCF RECON,ioos:station:SCCF:13:1,2017-11-03T13:00:00Z,26.5255,-82.0032,2.142,1.13,1111122 
SCCF RECON,ioos:station:SCCF:13:1,2017-11-03T14:00:00Z,26.5255,-82.0032,2.344,0.85,1111122 
SCCF RECON,ioos:station:SCCF:13:1,2017-11-03T15:00:00Z,26.5255,-82.0032,2.45,1.63,1111122 
SCCF RECON,ioos:station:SCCF:13:1,2017-11-03T16:00:00Z,26.5255,-82.0032,2.52,6.49,1111122 
SCCF RECON,ioos:station:SCCF:13:1,2017-11-03T17:00:00Z,26.5255,-82.0032,2.598,17.99,1111122 
SCCF RECON,ioos:station:SCCF:13:1,2017-11-03T18:00:00Z,26.5255,-82.0032,2.619,19.95,1111122 
SCCF RECON,ioos:station:SCCF:13:1,2017-11-03T19:00:00Z,26.5255,-82.0032,2.574,19.92,1111122 
SCCF RECON,ioos:station:SCCF:13:1,2017-11-03T20:00:00Z,26.5255,-82.0032,2.47,19.18,1111122 
SCCF RECON,ioos:station:SCCF:13:1,2017-11-03T21:00:00Z,26.5255,-82.0032,2.37,17.16,1111122 
SCCF RECON,ioos:station:SCCF:13:1,2017-11-03T22:00:00Z,26.5255,-82.0032,2.305,5.68,1111122 
SCCF RECON,ioos:station:SCCF:13:1,2017-11-04T04:00:00Z,26.5255,-82.0032,2.65,17.86,1111122 
SCCF RECON,ioos:station:SCCF:13:1,2017-11-04T05:00:00Z,26.5255,-82.0032,2.69,22.51,1111122 
SCCF RECON,ioos:station:SCCF:13:1,2017-11-04T06:00:00Z,26.5255,-82.0032,2.68,23.84,1111122 
SCCF RECON,ioos:station:SCCF:13:1,2017-11-04T07:00:00Z,26.5255,-82.0032,2.59,24.75,1111122 
SCCF RECON,ioos:station:SCCF:13:1,2017-11-04T08:00:00Z,26.5255,-82.0032,2.44,24.33,1111122 
SCCF RECON,ioos:station:SCCF:13:1,2017-11-04T09:00:00Z,26.5255,-82.0032,2.301,8.26,1111122 
SCCF RECON,ioos:station:SCCF:13:1,2017-11-04T10:00:00Z,26.5255,-82.0032,2.21,4.94,1111122 
SCCF RECON,ioos:station:SCCF:13:1,2017-11-04T11:00:00Z,26.5255,-82.0032,2.12,3.75,1111122 
SCCF RECON,ioos:station:SCCF:13:1,2017-11-04T12:00:00Z,26.5255,-82.0032,2.049,2.53,1111122 
SCCF RECON,ioos:station:SCCF:13:1,2017-11-04T13:00:00Z,26.5255,-82.0032,2.021,1.76,1111122 
SCCF RECON,ioos:station:SCCF:13:1,2017-11-04T14:00:00Z,26.5255,-82.0032,2.152,1.25,1111122 
SCCF RECON,ioos:station:SCCF:13:1,2017-11-04T15:00:00Z,26.5255,-82.0032,2.34,1.01,1111122 
SCCF RECON,ioos:station:SCCF:13:1,2017-11-04T16:00:00Z,26.5255,-82.0032,2.44,2.2,1111122 
SCCF RECON,ioos:station:SCCF:13:1,2017-11-04T17:00:00Z,26.5255,-82.0032,2.504,9.05,1111122 
SCCF RECON,ioos:station:SCCF:13:1,2017-11-04T18:00:00Z,26.5255,-82.0032,2.579,18.61,1111122 
SCCF RECON,ioos:station:SCCF:13:1,2017-11-04T19:00:00Z,26.5255,-82.0032,2.591,20.45,1111122 
SCCF RECON,ioos:station:SCCF:13:1,2017-11-04T20:00:00Z,26.5255,-82.0032,2.54,20.3,1111122 
SCCF RECON,ioos:station:SCCF:13:1,2017-11-04T21:00:00Z,26.5255,-82.0032,2.443,20.51,1111122 
SCCF RECON,ioos:station:SCCF:13:1,2017-11-04T22:00:00Z,26.5255,-82.0032,2.37,18.08,1111122 
SCCF RECON,ioos:station:SCCF:13:1,2017-11-05T04:00:00Z,26.5255,-82.0032,2.67,18.32,1111122 
SCCF RECON,ioos:station:SCCF:13:1,2017-11-05T05:00:00Z,26.5255,-82.0032,2.73,22.25,1111122 
SCCF RECON,ioos:station:SCCF:13:1,2017-11-05T06:00:00Z,26.5255,-82.0032,2.76,24.67,1111122 
SCCF RECON,ioos:station:SCCF:13:1,2017-11-05T07:00:00Z,26.5255,-82.0032,2.73,25.76,1111122 
SCCF RECON,ioos:station:SCCF:13:1,2017-11-05T08:00:00Z,26.5255,-82.0032,2.619,25.26,1111122 
SCCF RECON,ioos:station:SCCF:13:1,2017-11-05T09:00:00Z,26.5255,-82.0032,2.452,21.97,1111122 
SCCF RECON,ioos:station:SCCF:13:1,2017-11-05T10:00:00Z,26.5255,-82.0032,2.338,8.56,1111122 
SCCF RECON,ioos:station:SCCF:13:1,2017-11-05T11:00:00Z,26.5255,-82.0032,2.241,6.75,1111122 
SCCF RECON,ioos:station:SCCF:13:1,2017-11-05T12:00:00Z,26.5255,-82.0032,2.147,4.91,1111122 
SCCF RECON,ioos:station:SCCF:13:1,2017-11-05T13:00:00Z,26.5255,-82.0032,2.08,4.63,1111122 
SCCF RECON,ioos:station:SCCF:13:1,2017-11-05T14:00:00Z,26.5255,-82.0032,2.07,3.9,1111122 
SCCF RECON,ioos:station:SCCF:13:1,2017-11-05T15:00:00Z,26.5255,-82.0032,2.229,3.27,1111122 
SCCF RECON,ioos:station:SCCF:13:1,2017-11-05T16:00:00Z,26.5255,-82.0032,2.397,2.59,1111122 
SCCF RECON,ioos:station:SCCF:13:1,2017-11-05T17:00:00Z,26.5255,-82.0032,2.483,4.76,1111122 
SCCF RECON,ioos:station:SCCF:13:1,2017-11-05T18:00:00Z,26.5255,-82.0032,2.569,12.73,1111122 
SCCF RECON,ioos:station:SCCF:13:1,2017-11-05T19:00:00Z,26.5255,-82.0032,2.632,20.4,1111122 
SCCF RECON,ioos:station:SCCF:13:1,2017-11-05T20:00:00Z,26.5255,-82.0032,2.64,21.58,1111122 
SCCF RECON,ioos:station:SCCF:13:1,2017-11-05T21:00:00Z,26.5255,-82.0032,2.564,21.57,1111122 
SCCF RECON,ioos:station:SCCF:13:1,2017-11-05T22:00:00Z,26.5255,-82.0032,2.492,21.6,1111122 
SCCF RECON,ioos:station:SCCF:13:1,2017-11-06T05:00:00Z,26.5255,-82.0032,2.76,22.03,1111122 
SCCF RECON,ioos:station:SCCF:13:1,2017-11-06T06:00:00Z,26.5255,-82.0032,2.8,23.78,1111122 
SCCF RECON,ioos:station:SCCF:13:1,2017-11-06T07:00:00Z,26.5255,-82.0032,2.81,25.39,1111122 
SCCF RECON,ioos:station:SCCF:13:1,2017-11-06T08:00:00Z,26.5255,-82.0032,2.748,26.55,1111122 
SCCF RECON,ioos:station:SCCF:13:1,2017-11-06T09:00:00Z,26.5255,-82.0032,2.61,26.71,1111122 
SCCF RECON,ioos:station:SCCF:13:1,2017-11-06T10:00:00Z,26.5255,-82.0032,2.451,17.74,1111122 
SCCF RECON,ioos:station:SCCF:13:1,2017-11-06T11:00:00Z,26.5255,-82.0032,2.351,9.45,1111122 
SCCF RECON,ioos:station:SCCF:13:1,2017-11-06T12:00:00Z,26.5255,-82.0032,2.249,6.33,1111122 
SCCF RECON,ioos:station:SCCF:13:1,2017-11-06T13:00:00Z,26.5255,-82.0032,2.16,6.16,1111122 
SCCF RECON,ioos:station:SCCF:13:1,2017-11-06T14:00:00Z,26.5255,-82.0032,2.091,5.59,1111122 
SCCF RECON,ioos:station:SCCF:13:1,2017-11-06T15:00:00Z,26.5255,-82.0032,2.1,4.8,1111122 
SCCF RECON,ioos:station:SCCF:13:1,2017-11-06T16:00:00Z,26.5255,-82.0032,2.26,3.84,1111122 
SCCF RECON,ioos:station:SCCF:13:1,2017-11-06T17:00:00Z,26.5255,-82.0032,2.394,3.25,1111122 
SCCF RECON,ioos:station:SCCF:13:1,2017-11-06T18:00:00Z,26.5255,-82.0032,2.443,4.57,1111122 
SCCF RECON,ioos:station:SCCF:13:1,2017-11-06T19:00:00Z,26.5255,-82.0032,2.508,11.37,1111122 
SCCF RECON,ioos:station:SCCF:13:1,2017-11-06T20:00:00Z,26.5255,-82.0032,2.551,18.33,1111122 
SCCF RECON,ioos:station:SCCF:13:1,2017-11-06T21:00:00Z,26.5255,-82.0032,2.558,20.78,1111122 
SCCF RECON,ioos:station:SCCF:13:1,2017-11-06T22:00:00Z,26.5255,-82.0032,2.499,21.12,1111122 
SCCF RECON,ioos:station:SCCF:13:1,2017-11-07T05:00:00Z,26.5255,-82.0032,2.641,17.83,1111122 
SCCF RECON,ioos:station:SCCF:13:1,2017-11-07T06:00:00Z,26.5255,-82.0032,2.71,22.13,1111122 
SCCF RECON,ioos:station:SCCF:13:1,2017-11-07T07:00:00Z,26.5255,-82.0032,2.72,23.85,1111122 
SCCF RECON,ioos:station:SCCF:13:1,2017-11-07T08:00:00Z,26.5255,-82.0032,2.71,24.57,1111122 
SCCF RECON,ioos:station:SCCF:13:1,2017-11-07T09:00:00Z,26.5255,-82.0032,2.64,26.48,1111122 
SCCF RECON,ioos:station:SCCF:13:1,2017-11-07T10:00:00Z,26.5255,-82.0032,2.505,25.62,1111122 
SCCF RECON,ioos:station:SCCF:13:1,2017-11-07T11:00:00Z,26.5255,-82.0032,2.367,11.13,1111122 
SCCF RECON,ioos:station:SCCF:13:1,2017-11-07T12:00:00Z,26.5255,-82.0032,2.278,7.35,1111122 
SCCF RECON,ioos:station:SCCF:13:1,2017-11-07T13:00:00Z,26.5255,-82.0032,2.181,5.66,1111122 
SCCF RECON,ioos:station:SCCF:13:1,2017-11-07T14:00:00Z,26.5255,-82.0032,2.099,4.78,1111122 
SCCF RECON,ioos:station:SCCF:13:1,2017-11-07T17:00:00Z,26.5255,-82.0032,2.24,2.97,1111122 
SCCF RECON,ioos:station:SCCF:13:1,2017-11-07T19:00:00Z,26.5255,-82.0032,2.411,4.67,1111122 
SCCF RECON,ioos:station:SCCF:13:1,2017-11-07T20:00:00Z,26.5255,-82.0032,2.488,14.52,1111122 
SCCF RECON,ioos:station:SCCF:13:1,2017-11-07T22:00:00Z,26.5255,-82.0032,2.56,21.88,1111122 
SCCF RECON,ioos:station:SCCF:13:1,2017-11-07T23:00:00Z,26.5255,-82.0032,2.508,21.57,1111122 
SCCF RECON,ioos:station:SCCF:13:1,2017-11-08T06:00:00Z,26.5255,-82.0032,2.66,18.66,1111122 
SCCF RECON,ioos:station:SCCF:13:1,2017-11-08T07:00:00Z,26.5255,-82.0032,2.71,23.05,1111122 
SCCF RECON,ioos:station:SCCF:13:1,2017-11-08T08:00:00Z,26.5255,-82.0032,2.73,24.31,1111122 
SCCF RECON,ioos:station:SCCF:13:1,2017-11-08T09:00:00Z,26.5255,-82.0032,2.71,25.3,1111122 
SCCF RECON,ioos:station:SCCF:13:1,2017-11-08T10:00:00Z,26.5255,-82.0032,2.63,26.57,1111122 
SCCF RECON,ioos:station:SCCF:13:1,2017-11-08T11:00:00Z,26.5255,-82.0032,2.49,23.8,1111122 
SCCF RECON,ioos:station:SCCF:13:1,2017-11-08T12:00:00Z,26.5255,-82.0032,2.373,9.45,1111122 
SCCF RECON,ioos:station:SCCF:13:1,2017-11-08T13:00:00Z,26.5255,-82.0032,2.286,6.71,1111122 
SCCF RECON,ioos:station:SCCF:13:1,2017-11-08T14:00:00Z,26.5255,-82.0032,2.191,5.45,1111122 
SCCF RECON,ioos:station:SCCF:13:1,2017-11-08T15:00:00Z,26.5255,-82.0032,2.119,5.47,1111122 
SCCF RECON,ioos:station:SCCF:13:1,2017-11-08T16:00:00Z,26.5255,-82.0032,2.07,4.94,1111122 
SCCF RECON,ioos:station:SCCF:13:1,2017-11-08T17:00:00Z,26.5255,-82.0032,2.1,4.47,1111122 
SCCF RECON,ioos:station:SCCF:13:1,2017-11-08T18:00:00Z,26.5255,-82.0032,2.229,3.5,1111122 
SCCF RECON,ioos:station:SCCF:13:1,2017-11-08T19:00:00Z,26.5255,-82.0032,2.32,2.99,1111122 
SCCF RECON,ioos:station:SCCF:13:1,2017-11-08T20:00:00Z,26.5255,-82.0032,2.383,4.33,1111122 
SCCF RECON,ioos:station:SCCF:13:1,2017-11-08T21:00:00Z,26.5255,-82.0032,2.459,11.67,1111122 
SCCF RECON,ioos:station:SCCF:13:1,2017-11-08T22:00:00Z,26.5255,-82.0032,2.52,18.19,1111122 
SCCF RECON,ioos:station:SCCF:13:1,2017-11-09T05:00:00Z,26.5255,-82.0032,2.53,22.48,1111122 
SCCF RECON,ioos:station:SCCF:13:1,2017-11-09T06:00:00Z,26.5255,-82.0032,2.59,21.45,1111122 
SCCF RECON,ioos:station:SCCF:13:1,2017-11-09T07:00:00Z,26.5255,-82.0032,2.63,22.29,1111122 
SCCF RECON,ioos:station:SCCF:13:1,2017-11-09T08:00:00Z,26.5255,-82.0032,2.68,24.68,1111122 
SCCF RECON,ioos:station:SCCF:13:1,2017-11-09T09:00:00Z,26.5255,-82.0032,2.69,26.13,1111122 
SCCF RECON,ioos:station:SCCF:13:1,2017-11-09T10:00:00Z,26.5255,-82.0032,2.66,28.49,1111122 
SCCF RECON,ioos:station:SCCF:13:1,2017-11-09T11:00:00Z,26.5255,-82.0032,2.595,27.72,1111122 
SCCF RECON,ioos:station:SCCF:13:1,2017-11-09T12:00:00Z,26.5255,-82.0032,2.48,23.4,1111122 
SCCF RECON,ioos:station:SCCF:13:1,2017-11-09T13:00:00Z,26.5255,-82.0032,2.38,10.46,1111122 
SCCF RECON,ioos:station:SCCF:13:1,2017-11-09T14:00:00Z,26.5255,-82.0032,2.3,6.63,1111122 
SCCF RECON,ioos:station:SCCF:13:1,2017-11-09T15:00:00Z,26.5255,-82.0032,2.206,4.94,1111122 
SCCF RECON,ioos:station:SCCF:13:1,2017-11-09T16:00:00Z,26.5255,-82.0032,2.124,4.59,1111122 
SCCF RECON,ioos:station:SCCF:13:1,2017-11-09T17:00:00Z,26.5255,-82.0032,2.085,4.46,1111122 
SCCF RECON,ioos:station:SCCF:13:1,2017-11-09T18:00:00Z,26.5255,-82.0032,2.12,4.18,1111122 
SCCF RECON,ioos:station:SCCF:13:1,2017-11-09T19:00:00Z,26.5255,-82.0032,2.25,3.57,1111122 
SCCF RECON,ioos:station:SCCF:13:1,2017-11-09T20:00:00Z,26.5255,-82.0032,2.342,3.28,1111122 
SCCF RECON,ioos:station:SCCF:13:1,2017-11-09T21:00:00Z,26.5255,-82.0032,2.396,5.45,1111122 
SCCF RECON,ioos:station:SCCF:13:1,2017-11-09T22:00:00Z,26.5255,-82.0032,2.45,10.2,1111122 
SCCF RECON,ioos:station:SCCF:13:1,2017-11-10T05:00:00Z,26.5255,-82.0032,2.43,14.76,1111122 
SCCF RECON,ioos:station:SCCF:13:1,2017-11-10T06:00:00Z,26.5255,-82.0032,2.44,12.55,1111122 
SCCF RECON,ioos:station:SCCF:13:1,2017-11-10T07:00:00Z,26.5255,-82.0032,2.478,23.18,1111122 
SCCF RECON,ioos:station:SCCF:13:1,2017-11-10T08:00:00Z,26.5255,-82.0032,2.53,20.97,1111122 
SCCF RECON,ioos:station:SCCF:13:1,2017-11-10T09:00:00Z,26.5255,-82.0032,2.567,18.43,1111122 
SCCF RECON,ioos:station:SCCF:13:1,2017-11-10T10:00:00Z,26.5255,-82.0032,2.58,23.47,1111122 
SCCF RECON,ioos:station:SCCF:13:1,2017-11-10T11:00:00Z,26.5255,-82.0032,2.59,26.14,1111122 
SCCF RECON,ioos:station:SCCF:13:1,2017-11-10T12:00:00Z,26.5255,-82.0032,2.55,26.06,1111122 
SCCF RECON,ioos:station:SCCF:13:1,2017-11-10T13:00:00Z,26.5255,-82.0032,2.45,22.82,1111122 
SCCF RECON,ioos:station:SCCF:13:1,2017-11-10T14:00:00Z,26.5255,-82.0032,2.341,9.89,1111122 
SCCF RECON,ioos:station:SCCF:13:1,2017-11-10T15:00:00Z,26.5255,-82.0032,2.269,4.98,1111122 
SCCF RECON,ioos:station:SCCF:13:1,2017-11-10T16:00:00Z,26.5255,-82.0032,2.184,3.76,1111122 
SCCF RECON,ioos:station:SCCF:13:1,2017-11-10T17:00:00Z,26.5255,-82.0032,2.116,3.07,1111122 
SCCF RECON,ioos:station:SCCF:13:1,2017-11-10T18:00:00Z,26.5255,-82.0032,2.077,2.74,1111122 
SCCF RECON,ioos:station:SCCF:13:1,2017-11-10T19:00:00Z,26.5255,-82.0032,2.106,2.45,1111122 
SCCF RECON,ioos:station:SCCF:13:1,2017-11-10T20:00:00Z,26.5255,-82.0032,2.21,2.21,1111122 
SCCF RECON,ioos:station:SCCF:13:1,2017-11-10T21:00:00Z,26.5255,-82.0032,2.287,1.96,1111122 
SCCF RECON,ioos:station:SCCF:13:1,2017-11-10T22:00:00Z,26.5255,-82.0032,2.36,6.61,1111122 
SCCF RECON,ioos:station:SCCF:13:1,2017-11-11T05:00:00Z,26.5255,-82.0032,2.301,14.4,1111122 
SCCF RECON,ioos:station:SCCF:13:1,2017-11-11T06:00:00Z,26.5255,-82.0032,2.25,4.32,1111122 
SCCF RECON,ioos:station:SCCF:13:1,2017-11-11T07:00:00Z,26.5255,-82.0032,2.23,2.93,1111122 
SCCF RECON,ioos:station:SCCF:13:1,2017-11-11T08:00:00Z,26.5255,-82.0032,2.27,2.32,1111122 
SCCF RECON,ioos:station:SCCF:13:1,2017-11-11T09:00:00Z,26.5255,-82.0032,2.35,13.28,1111122 
SCCF RECON,ioos:station:SCCF:13:1,2017-11-11T10:00:00Z,26.5255,-82.0032,2.41,18.65,1111122 
SCCF RECON,ioos:station:SCCF:13:1,2017-11-11T11:00:00Z,26.5255,-82.0032,2.47,18.85,1111122 
SCCF RECON,ioos:station:SCCF:13:1,2017-11-11T12:00:00Z,26.5255,-82.0032,2.516,21.98,1111122 
SCCF RECON,ioos:station:SCCF:13:1,2017-11-11T13:00:00Z,26.5255,-82.0032,2.53,22.78,1111122 
SCCF RECON,ioos:station:SCCF:13:1,2017-11-11T14:00:00Z,26.5255,-82.0032,2.48,24.78,1111122 
SCCF RECON,ioos:station:SCCF:13:1,2017-11-11T15:00:00Z,26.5255,-82.0032,2.383,21.27,1111122 
SCCF RECON,ioos:station:SCCF:13:1,2017-11-11T16:00:00Z,26.5255,-82.0032,2.284,9.31,1111122 
SCCF RECON,ioos:station:SCCF:13:1,2017-11-11T17:00:00Z,26.5255,-82.0032,2.202,4.44,1111122 
SCCF RECON,ioos:station:SCCF:13:1,2017-11-11T18:00:00Z,26.5255,-82.0032,2.139,3.56,1111122 
SCCF RECON,ioos:station:SCCF:13:1,2017-11-11T19:00:00Z,26.5255,-82.0032,2.1,3.03,1111122 
SCCF RECON,ioos:station:SCCF:13:1,2017-11-11T20:00:00Z,26.5255,-82.0032,2.135,2.34,1111122 
SCCF RECON,ioos:station:SCCF:13:1,2017-11-11T21:00:00Z,26.5255,-82.0032,2.239,1.88,1111122 
SCCF RECON,ioos:station:SCCF:13:1,2017-11-11T22:00:00Z,26.5255,-82.0032,2.34,6.61,1111122 
SCCF RECON,ioos:station:SCCF:13:1,2017-11-12T05:00:00Z,26.5255,-82.0032,2.42,25.04,1111122 
SCCF RECON,ioos:station:SCCF:13:1,2017-11-12T06:00:00Z,26.5255,-82.0032,2.37,23.2,1111122 
SCCF RECON,ioos:station:SCCF:13:1,2017-11-12T07:00:00Z,26.5255,-82.0032,2.31,16.95,1111122 
SCCF RECON,ioos:station:SCCF:13:1,2017-11-12T08:00:00Z,26.5255,-82.0032,2.291,8.79,1111122 
SCCF RECON,ioos:station:SCCF:13:1,2017-11-12T09:00:00Z,26.5255,-82.0032,2.33,9.39,1111122 
SCCF RECON,ioos:station:SCCF:13:1,2017-11-12T10:00:00Z,26.5255,-82.0032,2.38,19.33,1111122 
SCCF RECON,ioos:station:SCCF:13:1,2017-11-12T11:00:00Z,26.5255,-82.0032,2.43,21.07,1111122 
SCCF RECON,ioos:station:SCCF:13:1,2017-11-12T12:00:00Z,26.5255,-82.0032,2.51,20.56,1111122 
SCCF RECON,ioos:station:SCCF:13:1,2017-11-12T13:00:00Z,26.5255,-82.0032,2.53,22.19,1111122 
SCCF RECON,ioos:station:SCCF:13:1,2017-11-12T14:00:00Z,26.5255,-82.0032,2.54,24.6,1111122 
SCCF RECON,ioos:station:SCCF:13:1,2017-11-12T15:00:00Z,26.5255,-82.0032,2.53,25.11,1111122 
SCCF RECON,ioos:station:SCCF:13:1,2017-11-12T16:00:00Z,26.5255,-82.0032,2.47,24.63,1111122 
SCCF RECON,ioos:station:SCCF:13:1,2017-11-12T17:00:00Z,26.5255,-82.0032,2.357,21.19,1111122 
SCCF RECON,ioos:station:SCCF:13:1,2017-11-12T18:00:00Z,26.5255,-82.0032,2.264,8.81,1111122 
SCCF RECON,ioos:station:SCCF:13:1,2017-11-12T19:00:00Z,26.5255,-82.0032,2.2,4.69,1111122 
SCCF RECON,ioos:station:SCCF:13:1,2017-11-12T20:00:00Z,26.5255,-82.0032,2.179,4.1,1111122 
SCCF RECON,ioos:station:SCCF:13:1,2017-11-12T21:00:00Z,26.5255,-82.0032,2.225,3.25,1111122 
SCCF RECON,ioos:station:SCCF:13:1,2017-11-12T22:00:00Z,26.5255,-82.0032,2.37,3.11,1111122 
SCCF RECON,ioos:station:SCCF:13:1,2017-11-13T05:00:00Z,26.5255,-82.0032,2.51,27.2,1111122 
SCCF RECON,ioos:station:SCCF:13:1,2017-11-13T06:00:00Z,26.5255,-82.0032,2.421,25.29,1111122 
SCCF RECON,ioos:station:SCCF:13:1,2017-11-13T07:00:00Z,26.5255,-82.0032,2.3,18.85,1111122 
SCCF RECON,ioos:station:SCCF:13:1,2017-11-13T08:00:00Z,26.5255,-82.0032,2.231,6.34,1111122 
SCCF RECON,ioos:station:SCCF:13:1,2017-11-13T09:00:00Z,26.5255,-82.0032,2.22,5.36,1111122 
SCCF RECON,ioos:station:SCCF:13:1,2017-11-13T10:00:00Z,26.5255,-82.0032,2.26,4.46,1111122 
SCCF RECON,ioos:station:SCCF:13:1,2017-11-13T11:00:00Z,26.5255,-82.0032,2.36,6.05,1111122 
SCCF RECON,ioos:station:SCCF:13:1,2017-11-13T12:00:00Z,26.5255,-82.0032,2.44,16.33,1111122 
SCCF RECON,ioos:station:SCCF:13:1,2017-11-13T13:00:00Z,26.5255,-82.0032,2.493,19.62,1111122 
SCCF RECON,ioos:station:SCCF:13:1,2017-11-13T14:00:00Z,26.5255,-82.0032,2.556,22.46,1111122 
SCCF RECON,ioos:station:SCCF:13:1,2017-11-13T15:00:00Z,26.5255,-82.0032,2.571,24.1,1111122 
SCCF RECON,ioos:station:SCCF:13:1,2017-11-13T16:00:00Z,26.5255,-82.0032,2.55,24.66,1111122 
SCCF RECON,ioos:station:SCCF:13:1,2017-11-13T17:00:00Z,26.5255,-82.0032,2.47,25.39,1111122 
SCCF RECON,ioos:station:SCCF:13:1,2017-11-13T18:00:00Z,26.5255,-82.0032,2.344,22.08,1111122 
SCCF RECON,ioos:station:SCCF:13:1,2017-11-13T19:00:00Z,26.5255,-82.0032,2.25,7.08,1111122 
SCCF RECON,ioos:station:SCCF:13:1,2017-11-13T20:00:00Z,26.5255,-82.0032,2.2,5.39,1111122 
SCCF RECON,ioos:station:SCCF:13:1,2017-11-13T21:00:00Z,26.5255,-82.0032,2.179,4.68,1111122 
SCCF RECON,ioos:station:SCCF:13:1,2017-11-13T23:00:00Z,26.5255,-82.0032,2.34,4.25,1111122 
SCCF RECON,ioos:station:SCCF:13:1,2017-11-14T05:00:00Z,26.5255,-82.0032,2.52,26.36,1111122 
SCCF RECON,ioos:station:SCCF:13:1,2017-11-14T06:00:00Z,26.5255,-82.0032,2.39,24.77,1111122 
SCCF RECON,ioos:station:SCCF:13:1,2017-11-14T07:00:00Z,26.5255,-82.0032,2.26,17.33,1111122 
SCCF RECON,ioos:station:SCCF:13:1,2017-11-14T08:00:00Z,26.5255,-82.0032,2.179,5.63,1111122 
SCCF RECON,ioos:station:SCCF:13:1,2017-11-14T09:00:00Z,26.5255,-82.0032,2.119,4.59,1111122 
SCCF RECON,ioos:station:SCCF:13:1,2017-11-14T10:00:00Z,26.5255,-82.0032,2.106,4.26,1111122 
SCCF RECON,ioos:station:SCCF:13:1,2017-11-14T11:00:00Z,26.5255,-82.0032,2.163,3.41,1111122 
SCCF RECON,ioos:station:SCCF:13:1,2017-11-14T12:00:00Z,26.5255,-82.0032,2.29,3.11,1111122 
SCCF RECON,ioos:station:SCCF:13:1,2017-11-14T13:00:00Z,26.5255,-82.0032,2.367,11.93,1111122 
SCCF RECON,ioos:station:SCCF:13:1,2017-11-14T14:00:00Z,26.5255,-82.0032,2.43,15.51,1111122 
SCCF RECON,ioos:station:SCCF:13:1,2017-11-14T15:00:00Z,26.5255,-82.0032,2.48,16.5,1111122 
SCCF RECON,ioos:station:SCCF:13:1,2017-11-14T16:00:00Z,26.5255,-82.0032,2.513,19.3,1111122 
SCCF RECON,ioos:station:SCCF:13:1,2017-11-14T17:00:00Z,26.5255,-82.0032,2.488,21.27,1111122 
SCCF RECON,ioos:station:SCCF:13:1,2017-11-14T18:00:00Z,26.5255,-82.0032,2.42,22.36,1111122 
SCCF RECON,ioos:station:SCCF:13:1,2017-11-14T19:00:00Z,26.5255,-82.0032,2.33,21.53,1111122 
SCCF RECON,ioos:station:SCCF:13:1,2017-11-14T20:00:00Z,26.5255,-82.0032,2.251,15.85,1111122 
SCCF RECON,ioos:station:SCCF:13:1,2017-11-14T21:00:00Z,26.5255,-82.0032,2.2,6.07,1111122 
SCCF RECON,ioos:station:SCCF:13:1,2017-11-14T22:00:00Z,26.5255,-82.0032,2.222,4.77,1111122 
SCCF RECON,ioos:station:SCCF:13:1,2017-11-15T05:00:00Z,26.5255,-82.0032,2.483,24.07,1111122 
SCCF RECON,ioos:station:SCCF:13:1,2017-11-15T06:00:00Z,26.5255,-82.0032,2.4,22.12,1111122 
SCCF RECON,ioos:station:SCCF:13:1,2017-11-15T07:00:00Z,26.5255,-82.0032,2.28,18.24,1111122 
SCCF RECON,ioos:station:SCCF:13:1,2017-11-15T08:00:00Z,26.5255,-82.0032,2.173,5.78,1111122 
SCCF RECON,ioos:station:SCCF:13:1,2017-11-15T09:00:00Z,26.5255,-82.0032,2.098,4.33,1111122 
SCCF RECON,ioos:station:SCCF:13:1,2017-11-15T10:00:00Z,26.5255,-82.0032,2.04,3.46,1111122 
SCCF RECON,ioos:station:SCCF:13:1,2017-11-15T11:00:00Z,26.5255,-82.0032,2.024,2.97,1111122 